Regional Weather Roundup
Issued by NWS

Home | Current Version | Previous Version | Text Only | Print | Product List | Glossary Off
Versions: 1 2 3 4 5 6 7 8 9 10 11 12 13 14 15 16 17 18 19 20 21 22 23 24 25 26 27 28 29 30 31 32 33 34 35 36 37 38 39 40 41 42 43 44 45 46 47 48 49 50

000
ASUS43 KMKX 211021
RWRWI

WISCONSIN REGIONAL WEATHER ROUNDUP
NATIONAL WEATHER SERVICE MILWAUKEE/SULLIVAN WI
500 AM CDT MON APR 21 2014

NOTE: "FAIR" INDICATES FEW OR NO CLOUDS BELOW 12,000 FEET WITH NO
SIGNIFICANT WEATHER AND/OR OBSTRUCTIONS TO VISIBILITY.

WIZ001-002-006>008-014>016-023>028-211100-
NORTHWEST WISCONSIN

CITY           SKY/WX    TMP DP  RH WIND       PRES   REMARKS
SUPERIOR ARPT  MOCLDY    31  30  95 N3        29.89F
ASHLAND        PTCLDY    34  31  88 SW3       29.91F
HAYWARD        PTCLDY    33  29  85 CALM      29.91F
SIREN          MOCLDY    43  38  83 CALM      29.89S
RICE LAKE      FOG       45  44  96 CALM      29.92S VSB<1/4
LADYSMITH      FOG       49  48  97 CALM      29.93F VSB 3/4
EAU CLAIRE     CLOUDY    51  51 100 CALM      29.91S FOG
MENOMONIE      FOG       52  51  97 CALM      29.91S VSB 1/2
NEW RICHMOND   CLOUDY    55  54  97 CALM      29.90R
OSCEOLA        CLOUDY    52  51  98 SE3       29.91S
$$

WIZ003>005-009-010-017-018-211100-
NORTH CENTRAL WISCONSIN

CITY           SKY/WX    TMP DP  RH WIND       PRES   REMARKS
WOODRUFF       HAZE      39  33  79 CALM      29.93S VSB 1/4
RHINELANDER    FOG       40  40 100 CALM      29.94F VSB 1/2
EAGLE RIVER    FOG       34  34 100 CALM      29.93S VSB<1/4
LAND O LAKES   MOCLDY    29  28  96 CALM      29.94F
PHILLIPS       FOG       43  43 100 CALM      29.92F VSB 1/4
TOMAHAWK       FOG       41  40  97 CALM      29.93F VSB 3/4
MEDFORD        CLOUDY    51  51 100 E3        29.93S FOG
MERRILL        FOG       47  47 100 CALM      29.93F VSB 1
$$

WIZ029-030-035-036-043>047-211100-
CENTRAL WISCONSIN

CITY           SKY/WX    TMP DP  RH WIND       PRES   REMARKS
WAUSAU         FOG       50  49  96 CALM      29.92F VSB 1/4
MOSINEE        FOG       50  50 100 CALM      29.95F VSB 1/4
MARSHFIELD     FOG       51  49  92 E3        29.92F VSB 1/4
STEVENS POINT  FOG       49  49  99 CALM      29.94F VSB 3/4
WAUPACA        LGT RAIN  54  52  94 CALM      29.94F
WAUTOMA        CLOUDY    52  52 100 SW5       29.95F FOG
WISC RAPIDS    FOG       52  51  97 CALM      29.94F VSB 1
CAMP DOUGLAS   CLOUDY    52  52 100 S2        29.91F FOG
$$

WIZ011>013-019>022-031-037>040-048>050-211100-
NORTHEAST WISCONSIN

CITY           SKY/WX    TMP DP  RH WIND       PRES   REMARKS
ANTIGO         FOG       44  44  99 CALM      29.94F VSB 1
STURGEON BAY   CLOUDY    45  39  81 N6        29.93F
GREEN BAY      CLOUDY    48  47  96 W5        29.93S FOG
MANITOWOC      MOCLDY    44  40  85 SW5       29.94R
APPLETON       RAIN      50  48  93 CALM      29.94F
CLINTONVILLE   LGT RAIN  48  48 100 CALM      29.94S VSB 3/4
OSHKOSH        CLOUDY    50  47  89 N5        29.94R FOG
$$

WIZ032>034-041-042-053>061-211100-
SOUTHWEST WISCONSIN

CITY           SKY/WX    TMP DP  RH WIND       PRES   REMARKS
LA CROSSE      CLOUDY    56  53  90 VRB5      29.91S
SPARTA         FOG       52  52  99 NE3       29.92S VSB 1
VIROQUA        CLOUDY    55  55 100 NW3       29.90F
BOSCOBEL       FOG       53  52  96 W3        29.92F VSB 1/4
PRAIRIE DU CHI FOG       54  53  96 CALM      29.92F VSB 1
PLATTEVILLE    FAIR      58  51  77 CALM      29.93F
$$

WIZ056-057-062-063-064-067-068-211100-
SOUTH CENTRAL WISCONSIN

CITY           SKY/WX    TMP DP  RH WIND       PRES   REMARKS
BARABOO/DELLS  DRIZZLE   54  51  92 E5        29.93F
LONE ROCK      CLOUDY    53  53 100 NE6       29.91F FOG
WATERTOWN      CLOUDY    58  48  69 S3        29.93S
MADISON        CLOUDY    57  52  83 S7        29.94S
MIDDLETON      FAIR      56  50  79 W3        29.95R
MONROE         CLOUDY    58  47  67 S8        29.94F
JANESVILLE     CLOUDY    61  45  55 S7        29.94F
$$

WIZ051-052-058>065-066-070>072-211100-
SOUTHEAST WISCONSIN

CITY           SKY/WX    TMP DP  RH WIND       PRES   REMARKS
MILWAUKEE      CLOUDY    62  51  67 W5        29.95F
WAUKESHA       LGT RAIN  55  50  82 SW6       29.96F
MILWAUKEE/TIMM CLOUDY    59  50  72 W6        29.95F
RACINE         CLOUDY    63  47  55 SW6       29.96F
BURLINGTON     CLOUDY    56  49  75 W6        29.95F
KENOSHA        CLOUDY    59  47  64 SW9       29.96F
FOND DU LAC    CLOUDY    49  45  86 S8        29.94S
SHEBOYGAN      MOCLDY    46  41  82 S7        29.93S
WEST BEND      CLOUDY    61  43  51 S5        29.94S
JUNEAU         LGT RAIN  55  46  74 N3        29.95S
$$

LSZ147-162-211100-
LAKE SUPERIOR

STATION/POSITION TIME  TEMP    WIND        PRES    WAVE
                       AIR SEA DIR/SP/G            HT/PER
                 (UTC) (F)     (DEG/KT/KT) (MB)    (FT/S)
DEVILS ISLAND    1000   43     100/  6/  7 1012.7F
PORT WING        0900   30     120/  3/  4 1012.9F
SAXON HARBOR     0900             CALM     1012.9F
$$

LMZ867-665-643>646-211100-
LAKE MICHIGAN

STATION/POSITION TIME  TEMP    WIND        PRES    WAVE
                       AIR SEA DIR/SP/G            HT/PER
                 (UTC) (F)     (DEG/KT/KT) (MB)    (FT/S)
NORTHPORT PIER   0900   40      CALM  /  4 1013.9F
SISTER BAY       0909   42        CALM       N/A
KEWAUNEE LAKESHO 0900   41     320/  3/  4 1014.3S
SHEBOYGAN LAKESH 1000   48     210/  7/  8 1014.1S
PORT WASHINGTON  0900   45      CALM  /  3 1013.9F
MILWAUKEE LAKESH 1000   62     250/  9/ 11   N/A
KENOSHA   LAKESH 1000   62     210/  7/  8   N/A
$$

TC  - TEMPERATURE IN CELSIUS
VSB - VISIBILITY IN STATUTE MILES
WCI - WIND CHILL INDEX
HX  - HEAT INDEX




USA.gov is the U.S. government's official web portal to all federal, state and local government web resources and services.